QPF
0.05 0.08 0.11 0.09 0.08 0.06 0.07 0.09 0.08 0.08 0.09 0.12 0.13 0.11 0.15 0.14 0.14 0.14 0.12 0.13 0.13 0.11 0.11 0.12 0.10 0.09 0.09 0.09 0.08 0.06 0.06 0.06 0.06 0.06 0.05 0.05 0.07 0.07 0.06 0.07 0.07 0.04 0.05
0.03 0.06 0.10 0.09 0.08 0.06 0.06 0.07 0.07 0.07 0.08 0.13 0.12 0.10 0.11 0.10 0.09 0.11 0.11 0.14 0.13 0.14 0.12 0.11 0.08 0.08 0.09 0.10 0.08 0.07 0.06 0.08 0.10 0.09 0.09 0.10 0.09 0.08 0.06 0.06 0.07 0.05 0.06
0.02 0.03 0.06 0.11 0.10 0.08 0.06 0.07 0.07 0.07 0.09 0.12 0.10 0.09 0.09 0.10 0.12 0.15 0.17 0.13 0.13 0.13 0.10 0.10 0.08 0.08 0.08 0.08 0.08 0.07 0.07 0.09 0.11 0.12 0.10 0.06 0.08 0.08 0.07 0.07 0.07 0.06 0.06
0.01 0.01 0.04 0.10 0.08 0.05 0.04 0.05 0.09 0.08 0.08 0.09 0.08 0.07 0.08 0.09 0.12 0.15 0.14 0.11 0.12 0.07 0.06 0.06 0.07 0.08 0.07 0.07 0.07 0.07 0.07 0.06 0.11 0.08 0.03 0.02 0.04 0.09 0.09 0.07 0.06 0.04 0.03
0.00 0.00 0.02 0.07 0.08 0.05 0.03 0.05 0.07 0.06 0.07 0.09 0.08 0.07 0.06 0.06 0.06 0.08 0.07 0.08 0.07 0.05 0.05 0.06 0.07 0.07 0.06 0.06 0.06 0.07 0.06 0.07 0.10 0.03 0.01 0.02 0.04 0.07 0.08 0.06 0.05 0.03 0.02
0.01 0.01 0.02 0.04 0.06 0.06 0.04 0.04 0.05 0.05 0.05 0.08 0.12 0.10 0.07 0.06 0.05 0.05 0.05 0.04 0.04 0.04 0.05 0.05 0.05 0.05 0.05 0.05 0.06 0.07 0.08 0.09 0.06 0.01 0.01 0.02 0.04 0.06 0.07 0.06 0.06 0.04 0.04
0.01 0.01 0.02 0.03 0.04 0.05 0.04 0.04 0.03 0.03 0.04 0.07 0.12 0.11 0.08 0.07 0.05 0.06 0.05 0.03 0.04 0.05 0.05 0.05 0.04 0.04 0.05 0.05 0.07 0.09 0.09 0.06 0.02 0.01 0.01 0.01 0.02 0.05 0.06 0.06 0.07 0.05 0.04
0.01 0.01 0.02 0.03 0.03 0.04 0.03 0.03 0.03 0.03 0.03 0.05 0.08 0.08 0.08 0.06 0.05 0.06 0.04 0.03 0.04 0.05 0.05 0.05 0.04 0.04 0.05 0.05 0.06 0.09 0.09 0.04 0.02 0.01 0.01 0.01 0.02 0.04 0.06 0.05 0.05 0.04 0.03
0.00 0.01 0.02 0.03 0.05 0.05 0.06 0.04 0.03 0.02 0.02 0.03 0.03 0.04 0.07 0.06 0.06 0.06 0.05 0.05 0.06 0.05 0.05 0.04 0.03 0.02 0.03 0.04 0.04 0.06 0.07 0.04 0.01 0.01 0.01 0.02 0.03 0.04 0.04 0.03 0.03 0.04 0.04
0.02 0.01 0.01 0.01 0.02 0.04 0.07 0.06 0.04 0.03 0.02 0.03 0.03 0.04 0.06 0.07 0.08 0.08 0.06 0.07 0.07 0.06 0.05 0.04 0.04 0.03 0.03 0.03 0.03 0.05 0.05 0.04 0.02 0.01 0.01 0.02 0.03 0.03 0.03 0.03 0.03 0.04 0.04
0.02 0.01 0.01 0.01 0.01 0.01 0.03 0.04 0.05 0.03 0.04 0.03 0.03 0.05 0.04 0.07 0.10 0.10 0.07 0.06 0.05 0.07 0.08 0.06 0.06 0.05 0.03 0.04 0.06 0.06 0.04 0.02 0.01 0.00 0.01 0.03 0.03 0.04 0.04 0.05 0.05 0.04 0.05
0.01 0.01 0.01 0.01 0.01 0.01 0.01 0.02 0.02 0.01 0.01 0.01 0.01 0.02 0.02 0.05 0.09 0.08 0.08 0.05 0.05 0.09 0.08 0.06 0.05 0.05 0.02 0.02 0.04 0.03 0.02 0.01 0.01 0.01 0.01 0.03 0.03 0.04 0.05 0.05 0.04 0.03 0.03
0.01 0.01 0.01 0.00 0.01 0.01 0.00 0.00 0.01 0.01 0.01 0.01 0.01 0.01 0.02 0.03 0.06 0.07 0.05 0.03 0.03 0.05 0.03 0.03 0.03 0.01 0.01 0.01 0.01 0.01 0.02 0.02 0.02 0.02 0.02 0.03 0.03 0.04 0.05 0.04 0.04 0.03 0.03
0.00 0.01 0.01 0.01 0.01 0.01 0.01 0.00 0.00 0.01 0.01 0.01 0.01 0.01 0.01 0.01 0.03 0.04 0.02 0.01 0.01 0.01 0.01 0.01 0.01 0.02 0.02 0.03 0.03 0.02 0.02 0.03 0.03 0.03 0.02 0.03 0.04 0.05 0.06 0.06 0.05 0.03 0.03
0.01 0.01 0.02 0.02 0.02 0.01 0.01 0.01 0.01 0.01 0.02 0.01 0.01 0.01 0.00 0.00 0.01 0.01 0.01 0.00 0.01 0.01 0.01 0.01 0.01 0.02 0.02 0.03 0.03 0.02 0.02 0.02 0.02 0.02 0.02 0.04 0.05 0.04 0.06 0.06 0.05 0.05 0.04
0.01 0.01 0.02 0.02 0.01 0.01 0.01 0.01 0.01 0.02 0.03 0.02 0.02 0.02 0.02 0.01 0.01 0.01 0.01 0.00 0.01 0.01 0.00 0.01 0.02 0.02 0.02 0.02 0.03 0.03 0.02 0.02 0.02 0.01 0.01 0.03 0.06 0.05 0.05 0.06 0.06 0.07 0.08
0.01 0.01 0.02 0.01 0.01 0.01 0.01 0.01 0.01 0.03 0.04 0.03 0.04 0.03 0.03 0.02 0.03 0.03 0.02 0.01 0.01 0.01 0.01 0.01 0.02 0.02 0.03 0.04 0.04 0.03 0.02 0.03 0.03 0.02 0.01 0.01 0.03 0.05 0.06 0.07 0.07 0.08 0.09
0.00 0.00 0.01 0.01 0.02 0.02 0.01 0.01 0.02 0.04 0.03 0.02 0.03 0.04 0.03 0.03 0.05 0.04 0.03 0.02 0.01 0.01 0.01 0.02 0.03 0.03 0.04 0.04 0.03 0.02 0.03 0.03 0.02 0.02 0.01 0.01 0.02 0.02 0.05 0.08 0.08 0.07 0.08
0.01 0.00 0.01 0.01 0.01 0.02 0.01 0.02 0.04 0.05 0.03 0.02 0.03 0.03 0.03 0.04 0.04 0.04 0.04 0.02 0.02 0.02 0.02 0.03 0.04 0.03 0.03 0.03 0.02 0.02 0.02 0.03 0.02 0.02 0.02 0.03 0.03 0.02 0.03 0.05 0.08 0.07 0.08
0.01 0.02 0.02 0.01 0.02 0.02 0.02 0.02 0.05 0.06 0.05 0.04 0.04 0.04 0.04 0.03 0.04 0.04 0.04 0.03 0.02 0.02 0.02 0.02 0.03 0.03 0.03 0.03 0.03 0.04 0.03 0.02 0.02 0.03 0.04 0.06 0.05 0.04 0.04 0.04 0.06 0.07 0.08
0.03 0.06 0.03 0.02 0.02 0.02 0.01 0.02 0.04 0.06 0.06 0.05 0.05 0.04 0.03 0.04 0.04 0.04 0.04 0.03 0.03 0.03 0.03 0.02 0.02 0.04 0.04 0.05 0.05 0.05 0.05 0.02 0.03 0.04 0.06 0.07 0.06 0.06 0.06 0.05 0.05 0.06 0.05
0.03 0.03 0.02 0.02 0.03 0.02 0.02 0.03 0.04 0.05 0.07 0.07 0.06 0.04 0.03 0.03 0.02 0.02 0.02 0.03 0.03 0.03 0.02 0.03 0.03 0.03 0.04 0.05 0.05 0.06 0.04 0.02 0.02 0.02 0.02 0.03 0.04 0.05 0.04 0.05 0.05 0.05 0.04
0.01 0.02 0.02 0.03 0.04 0.03 0.04 0.04 0.03 0.04 0.05 0.05 0.05 0.04 0.04 0.04 0.03 0.02 0.01 0.02 0.04 0.04 0.02 0.02 0.03 0.02 0.02 0.05 0.05 0.06 0.05 0.02 0.02 0.02 0.01 0.02 0.03 0.03 0.04 0.05 0.05 0.05 0.04
0.01 0.02 0.04 0.03 0.03 0.04 0.05 0.03 0.02 0.03 0.04 0.04 0.05 0.05 0.06 0.05 0.05 0.03 0.04 0.04 0.04 0.03 0.02 0.02 0.03 0.03 0.03 0.03 0.04 0.04 0.05 0.03 0.02 0.01 0.01 0.01 0.01 0.01 0.02 0.03 0.04 0.05 0.04
0.01 0.02 0.03 0.02 0.02 0.03 0.04 0.03 0.04 0.03 0.03 0.03 0.04 0.05 0.06 0.06 0.07 0.05 0.06 0.06 0.05 0.05 0.04 0.03 0.03 0.03 0.03 0.04 0.04 0.04 0.04 0.04 0.03 0.02 0.01 0.01 0.01 0.01 0.01 0.02 0.03 0.04 0.04
0.00 0.01 0.02 0.01 0.01 0.01 0.01 0.02 0.03 0.03 0.03 0.03 0.04 0.03 0.04 0.06 0.08 0.08 0.08 0.08 0.08 0.06 0.06 0.06 0.05 0.05 0.05 0.05 0.04 0.04 0.04 0.05 0.04 0.02 0.02 0.01 0.02 0.02 0.02 0.02 0.02 0.03 0.03
MSLP
1012.47 1012.00 1011.69 1011.56 1011.58 1011.71 1011.89 1012.06 1012.19 1012.26 1012.29 1012.29 1012.31 1012.37 1012.49 1012.66 1012.87 1013.10 1013.34 1013.56 1013.77 1013.96 1014.15 1014.34 1014.54 1014.75 1014.97 1015.19 1015.39 1015.59 1015.77 1015.95 1016.13 1016.33 1016.54 1016.78 1017.04 1017.30 1017.57 1017.82 1018.05 1018.26 1018.45
1012.29 1011.95 1011.76 1011.73 1011.84 1012.03 1012.24 1012.42 1012.53 1012.57 1012.56 1012.53 1012.53 1012.59 1012.72 1012.92 1013.17 1013.44 1013.69 1013.92 1014.11 1014.27 1014.42 1014.56 1014.71 1014.87 1015.06 1015.25 1015.45 1015.64 1015.83 1016.03 1016.23 1016.45 1016.69 1016.95 1017.22 1017.50 1017.78 1018.04 1018.28 1018.49 1018.69
1012.17 1011.96 1011.87 1011.94 1012.12 1012.35 1012.58 1012.76 1012.85 1012.86 1012.82 1012.77 1012.76 1012.82 1012.97 1013.20 1013.47 1013.75 1014.01 1014.22 1014.38 1014.50 1014.59 1014.68 1014.78 1014.91 1015.07 1015.25 1015.45 1015.66 1015.87 1016.10 1016.33 1016.58 1016.86 1017.14 1017.43 1017.72 1018.00 1018.26 1018.50 1018.71 1018.91
1012.13 1012.02 1012.03 1012.17 1012.40 1012.66 1012.89 1013.06 1013.13 1013.12 1013.06 1013.01 1013.00 1013.08 1013.24 1013.48 1013.75 1014.03 1014.27 1014.45 1014.57 1014.65 1014.70 1014.75 1014.82 1014.93 1015.08 1015.27 1015.47 1015.70 1015.95 1016.21 1016.48 1016.77 1017.07 1017.37 1017.68 1017.97 1018.24 1018.48 1018.71 1018.92 1019.11
1012.16 1012.12 1012.20 1012.38 1012.64 1012.91 1013.14 1013.30 1013.36 1013.34 1013.28 1013.24 1013.25 1013.33 1013.51 1013.74 1014.01 1014.26 1014.47 1014.61 1014.70 1014.75 1014.78 1014.81 1014.89 1015.00 1015.16 1015.36 1015.58 1015.84 1016.10 1016.39 1016.69 1017.01 1017.33 1017.65 1017.95 1018.23 1018.48 1018.71 1018.91 1019.11 1019.30
1012.24 1012.25 1012.36 1012.57 1012.83 1013.09 1013.31 1013.46 1013.52 1013.51 1013.47 1013.44 1013.48 1013.58 1013.76 1013.98 1014.22 1014.44 1014.61 1014.72 1014.78 1014.81 1014.85 1014.90 1015.00 1015.14 1015.33 1015.56 1015.81 1016.08 1016.36 1016.66 1016.98 1017.30 1017.63 1017.95 1018.24 1018.50 1018.73 1018.92 1019.09 1019.27 1019.47
1012.37 1012.40 1012.52 1012.71 1012.96 1013.21 1013.41 1013.55 1013.61 1013.62 1013.61 1013.62 1013.68 1013.80 1013.98 1014.18 1014.38 1014.56 1014.68 1014.76 1014.81 1014.85 1014.92 1015.02 1015.17 1015.37 1015.60 1015.86 1016.13 1016.40 1016.69 1016.98 1017.30 1017.62 1017.94 1018.25 1018.52 1018.76 1018.95 1019.11 1019.26 1019.42 1019.60
1012.54 1012.56 1012.66 1012.85 1013.06 1013.28 1013.47 1013.59 1013.66 1013.69 1013.71 1013.76 1013.85 1013.99 1014.15 1014.33 1014.49 1014.61 1014.69 1014.74 1014.79 1014.86 1014.98 1015.15 1015.38 1015.64 1015.93 1016.22 1016.50 1016.77 1017.04 1017.31 1017.60 1017.91 1018.21 1018.51 1018.77 1018.99 1019.16 1019.29 1019.41 1019.54 1019.70
1012.72 1012.74 1012.83 1012.98 1013.17 1013.35 1013.50 1013.61 1013.68 1013.73 1013.79 1013.87 1013.99 1014.14 1014.29 1014.43 1014.54 1014.61 1014.65 1014.68 1014.74 1014.84 1015.02 1015.26 1015.57 1015.91 1016.25 1016.56 1016.85 1017.11 1017.35 1017.59 1017.85 1018.13 1018.42 1018.71 1018.97 1019.18 1019.34 1019.45 1019.54 1019.65 1019.79
1012.91 1012.93 1013.01 1013.14 1013.29 1013.44 1013.56 1013.64 1013.71 1013.78 1013.86 1013.97 1014.11 1014.27 1014.41 1014.52 1014.58 1014.60 1014.60 1014.61 1014.67 1014.80 1015.04 1015.35 1015.73 1016.13 1016.51 1016.85 1017.13 1017.37 1017.58 1017.78 1018.01 1018.27 1018.55 1018.84 1019.11 1019.33 1019.49 1019.61 1019.69 1019.77 1019.88
1013.09 1013.13 1013.21 1013.33 1013.45 1013.56 1013.65 1013.71 1013.77 1013.84 1013.94 1014.08 1014.24 1014.40 1014.53 1014.61 1014.63 1014.61 1014.57 1014.56 1014.62 1014.79 1015.06 1015.42 1015.85 1016.30 1016.71 1017.06 1017.33 1017.54 1017.72 1017.89 1018.09 1018.33 1018.62 1018.92 1019.20 1019.45 1019.64 1019.76 1019.84 1019.91 1019.99
1013.24 1013.31 1013.42 1013.54 1013.64 1013.72 1013.77 1013.81 1013.86 1013.93 1014.05 1014.20 1014.38 1014.55 1014.68 1014.75 1014.75 1014.70 1014.64 1014.61 1014.67 1014.84 1015.13 1015.52 1015.97 1016.44 1016.86 1017.20 1017.46 1017.65 1017.80 1017.94 1018.11 1018.35 1018.63 1018.95 1019.27 1019.55 1019.77 1019.92 1020.01 1020.07 1020.13
1013.33 1013.46 1013.60 1013.74 1013.84 1013.89 1013.92 1013.93 1013.97 1014.04 1014.17 1014.34 1014.54 1014.74 1014.88 1014.95 1014.96 1014.90 1014.83 1014.80 1014.84 1015.01 1015.29 1015.68 1016.13 1016.59 1017.00 1017.33 1017.57 1017.73 1017.85 1017.97 1018.13 1018.35 1018.64 1018.97 1019.31 1019.62 1019.87 1020.05 1020.17 1020.23 1020.28
1013.34 1013.54 1013.73 1013.89 1013.99 1014.05 1014.06 1014.06 1014.09 1014.16 1014.30 1014.50 1014.72 1014.95 1015.12 1015.23 1015.25 1015.22 1015.16 1015.13 1015.18 1015.33 1015.59 1015.95 1016.37 1016.80 1017.18 1017.49 1017.70 1017.84 1017.94 1018.04 1018.17 1018.38 1018.66 1018.98 1019.33 1019.66 1019.94 1020.15 1020.29 1020.37 1020.42
1013.29 1013.55 1013.79 1013.98 1014.10 1014.16 1014.17 1014.17 1014.20 1014.28 1014.43 1014.65 1014.91 1015.16 1015.38 1015.53 1015.61 1015.62 1015.60 1015.59 1015.64 1015.78 1016.02 1016.34 1016.71 1017.09 1017.42 1017.69 1017.88 1018.00 1018.07 1018.15 1018.26 1018.45 1018.69 1019.00 1019.33 1019.66 1019.94 1020.17 1020.33 1020.43 1020.49
1013.20 1013.50 1013.78 1013.99 1014.14 1014.22 1014.25 1014.27 1014.30 1014.39 1014.56 1014.79 1015.06 1015.35 1015.61 1015.82 1015.96 1016.04 1016.08 1016.11 1016.18 1016.32 1016.52 1016.80 1017.11 1017.43 1017.72 1017.95 1018.10 1018.20 1018.26 1018.32 1018.40 1018.54 1018.74 1019.00 1019.29 1019.58 1019.85 1020.08 1020.25 1020.37 1020.46
1013.10 1013.42 1013.72 1013.96 1014.13 1014.24 1014.30 1014.34 1014.40 1014.50 1014.67 1014.90 1015.18 1015.48 1015.77 1016.03 1016.24 1016.39 1016.50 1016.59 1016.70 1016.84 1017.03 1017.26 1017.52 1017.78 1018.02 1018.21 1018.34 1018.42 1018.47 1018.51 1018.56 1018.65 1018.79 1018.98 1019.20 1019.44 1019.67 1019.88 1020.05 1020.18 1020.29
1013.03 1013.35 1013.65 1013.91 1014.11 1014.25 1014.35 1014.43 1014.51 1014.62 1014.77 1014.99 1015.25 1015.54 1015.84 1016.13 1016.39 1016.61 1016.79 1016.95 1017.11 1017.27 1017.46 1017.66 1017.87 1018.08 1018.27 1018.43 1018.55 1018.62 1018.66 1018.68 1018.71 1018.75 1018.82 1018.93 1019.07 1019.24 1019.41 1019.58 1019.73 1019.87 1019.99
1013.01 1013.31 1013.60 1013.86 1014.09 1014.27 1014.42 1014.54 1014.64 1014.76 1014.89 1015.07 1015.28 1015.53 1015.80 1016.09 1016.38 1016.65 1016.91 1017.14 1017.35 1017.55 1017.74 1017.93 1018.11 1018.28 1018.44 1018.57 1018.68 1018.75 1018.79 1018.81 1018.82 1018.82 1018.84 1018.87 1018.92 1019.00 1019.11 1019.22 1019.35 1019.47 1019.59
1013.05 1013.31 1013.58 1013.84 1014.09 1014.31 1014.51 1014.67 1014.81 1014.93 1015.04 1015.15 1015.29 1015.47 1015.69 1015.95 1016.24 1016.54 1016.85 1017.14 1017.41 1017.66 1017.87 1018.05 1018.21 1018.36 1018.49 1018.61 1018.72 1018.80 1018.86 1018.89 1018.89 1018.87 1018.84 1018.80 1018.78 1018.78 1018.81 1018.86 1018.94 1019.04 1019.14
1013.12 1013.34 1013.57 1013.83 1014.10 1014.36 1014.61 1014.83 1015.00 1015.12 1015.20 1015.26 1015.31 1015.40 1015.54 1015.74 1016.00 1016.31 1016.66 1017.00 1017.33 1017.61 1017.85 1018.04 1018.20 1018.33 1018.45 1018.56 1018.67 1018.77 1018.85 1018.91 1018.92 1018.89 1018.83 1018.76 1018.67 1018.61 1018.56 1018.55 1018.58 1018.63 1018.69
1013.16 1013.34 1013.55 1013.80 1014.08 1014.39 1014.70 1014.97 1015.18 1015.32 1015.37 1015.37 1015.35 1015.34 1015.39 1015.52 1015.74 1016.04 1016.40 1016.78 1017.15 1017.48 1017.74 1017.95 1018.10 1018.23 1018.34 1018.45 1018.57 1018.69 1018.80 1018.88 1018.92 1018.91 1018.84 1018.74 1018.62 1018.50 1018.39 1018.32 1018.29 1018.28 1018.29
1013.13 1013.28 1013.46 1013.70 1014.00 1014.34 1014.70 1015.04 1015.30 1015.46 1015.52 1015.48 1015.39 1015.31 1015.27 1015.33 1015.50 1015.78 1016.14 1016.54 1016.94 1017.30 1017.59 1017.81 1017.97 1018.09 1018.19 1018.30 1018.43 1018.57 1018.71 1018.83 1018.90 1018.91 1018.86 1018.76 1018.61 1018.45 1018.31 1018.18 1018.09 1018.03 1017.98
1012.99 1013.12 1013.28 1013.50 1013.81 1014.18 1014.59 1014.98 1015.30 1015.51 1015.59 1015.54 1015.42 1015.29 1015.19 1015.19 1015.31 1015.56 1015.92 1016.32 1016.74 1017.12 1017.42 1017.65 1017.81 1017.93 1018.03 1018.14 1018.27 1018.43 1018.60 1018.75 1018.86 1018.91 1018.88 1018.78 1018.63 1018.45 1018.27 1018.10 1017.97 1017.85 1017.76
1012.74 1012.87 1013.00 1013.20 1013.50 1013.89 1014.33 1014.78 1015.16 1015.42 1015.54 1015.52 1015.40 1015.25 1015.12 1015.09 1015.17 1015.39 1015.73 1016.13 1016.55 1016.93 1017.25 1017.48 1017.64 1017.75 1017.84 1017.95 1018.09 1018.26 1018.46 1018.64 1018.79 1018.87 1018.87 1018.79 1018.64 1018.46 1018.26 1018.06 1017.88 1017.74 1017.61
1012.42 1012.54 1012.65 1012.82 1013.10 1013.48 1013.94 1014.43 1014.86 1015.18 1015.36 1015.39 1015.30 1015.16 1015.03 1014.97 1015.04 1015.23 1015.55 1015.94 1016.34 1016.72 1017.03 1017.26 1017.41 1017.52 1017.61 1017.72 1017.87 1018.06 1018.27 1018.48 1018.66 1018.77 1018.81 1018.75 1018.62 1018.44 1018.23 1018.01 1017.82 1017.65 1017.51
Thickness
5763 5767 5767 5767 5767 5766 5766 5766 5766 5766 5766 5765 5764 5764 5763 5763 5762 5762 5762 5761 5761 5760 5759 5759 5758 5757 5756 5755 5754 5754 5753 5753 5752 5751 5750 5748 5747 5745 5744 5743 5742 5741 5740
5767 5767 5766 5766 5766 5765 5765 5764 5764 5764 5763 5763 5762 5762 5762 5761 5761 5761 5760 5760 5759 5758 5758 5757 5756 5755 5754 5754 5753 5752 5751 5751 5750 5750 5749 5747 5746 5744 5743 5742 5741 5740 5739
5768 5767 5766 5765 5764 5764 5763 5762 5762 5761 5761 5761 5761 5761 5761 5760 5759 5760 5759 5759 5758 5757 5756 5756 5754 5754 5753 5752 5752 5751 5750 5749 5749 5748 5747 5746 5744 5743 5742 5741 5740 5739 5738
5767 5766 5764 5764 5763 5762 5761 5761 5760 5760 5760 5759 5759 5760 5760 5759 5759 5758 5758 5757 5756 5756 5755 5754 5753 5752 5752 5751 5750 5749 5748 5748 5747 5746 5745 5745 5744 5742 5741 5740 5739 5738 5737
5766 5764 5763 5762 5761 5760 5760 5760 5759 5758 5758 5758 5758 5758 5758 5757 5757 5757 5756 5755 5755 5754 5754 5753 5752 5751 5750 5750 5749 5748 5747 5746 5746 5745 5744 5743 5743 5742 5741 5740 5739 5737 5736
5765 5763 5762 5761 5759 5758 5758 5758 5757 5757 5757 5756 5756 5756 5756 5756 5756 5755 5755 5754 5753 5753 5752 5752 5751 5750 5749 5748 5747 5746 5746 5745 5744 5743 5743 5742 5741 5741 5740 5739 5738 5736 5735
5764 5762 5760 5759 5758 5757 5756 5756 5756 5755 5755 5755 5754 5754 5754 5754 5754 5754 5753 5752 5752 5751 5750 5750 5750 5749 5748 5748 5746 5746 5745 5744 5743 5742 5741 5741 5740 5740 5739 5738 5737 5736 5734
5763 5761 5760 5758 5757 5756 5755 5754 5754 5754 5754 5753 5752 5752 5752 5752 5752 5752 5752 5751 5750 5749 5749 5749 5748 5748 5747 5747 5745 5744 5744 5743 5742 5741 5741 5740 5739 5739 5738 5737 5736 5735 5734
5762 5760 5759 5757 5756 5755 5754 5753 5753 5752 5752 5752 5752 5751 5751 5751 5750 5750 5750 5750 5749 5748 5747 5747 5747 5746 5746 5745 5745 5744 5743 5742 5741 5741 5740 5739 5739 5738 5737 5737 5736 5735 5733
5761 5759 5758 5757 5755 5754 5752 5752 5751 5751 5751 5751 5750 5750 5750 5750 5749 5749 5749 5748 5748 5747 5746 5746 5746 5745 5744 5744 5744 5743 5742 5742 5741 5740 5740 5739 5739 5738 5737 5736 5735 5734 5733
5760 5759 5758 5756 5754 5753 5752 5751 5750 5750 5750 5749 5749 5749 5748 5748 5748 5748 5748 5747 5747 5746 5746 5745 5744 5744 5744 5743 5743 5742 5742 5741 5741 5740 5740 5739 5739 5738 5737 5736 5736 5734 5733
5759 5758 5758 5756 5754 5753 5752 5750 5749 5749 5748 5747 5747 5747 5747 5747 5746 5746 5747 5746 5746 5746 5745 5744 5744 5743 5743 5742 5742 5741 5741 5741 5740 5740 5739 5739 5739 5738 5737 5736 5735 5734 5733
5762 5760 5759 5757 5755 5753 5751 5750 5749 5748 5747 5746 5746 5745 5746 5745 5745 5745 5745 5745 5745 5744 5744 5743 5742 5742 5742 5741 5741 5741 5741 5741 5740 5740 5740 5739 5739 5738 5737 5736 5735 5734 5732
5764 5762 5761 5759 5756 5754 5752 5750 5749 5748 5746 5745 5745 5745 5745 5744 5744 5744 5743 5743 5743 5743 5742 5742 5741 5741 5741 5741 5741 5741 5741 5741 5740 5740 5740 5739 5739 5738 5737 5736 5735 5734 5732
5767 5765 5763 5761 5758 5756 5753 5751 5750 5748 5747 5746 5745 5745 5744 5743 5743 5743 5743 5742 5742 5742 5741 5741 5740 5740 5740 5741 5741 5741 5741 5741 5740 5740 5740 5739 5738 5738 5737 5736 5735 5734 5732
5771 5768 5766 5764 5761 5758 5755 5753 5751 5749 5748 5746 5745 5745 5744 5744 5743 5742 5742 5742 5741 5741 5741 5740 5740 5740 5740 5740 5741 5741 5741 5741 5740 5740 5739 5739 5738 5738 5737 5736 5735 5734 5732
5775 5772 5769 5767 5764 5761 5758 5755 5753 5751 5749 5747 5746 5745 5745 5744 5743 5742 5742 5741 5741 5741 5741 5740 5740 5740 5740 5740 5740 5741 5741 5740 5740 5739 5739 5739 5738 5738 5737 5736 5735 5733 5732
5779 5775 5772 5771 5766 5763 5760 5758 5755 5752 5751 5749 5748 5746 5745 5744 5744 5743 5742 5742 5741 5741 5740 5740 5739 5739 5738 5738 5738 5739 5740 5739 5739 5739 5738 5738 5737 5737 5736 5736 5734 5733 5732
5783 5778 5774 5772 5768 5764 5762 5759 5756 5754 5752 5751 5749 5748 5747 5746 5745 5744 5743 5742 5742 5741 5740 5740 5739 5738 5737 5737 5737 5738 5738 5738 5738 5738 5737 5737 5737 5736 5735 5735 5734 5732 5731
5786 5782 5777 5774 5770 5766 5763 5759 5756 5754 5753 5751 5750 5749 5748 5747 5746 5744 5743 5743 5742 5741 5740 5739 5738 5737 5736 5736 5736 5736 5736 5737 5737 5737 5737 5737 5736 5736 5735 5734 5733 5732 5731
5788 5783 5779 5775 5772 5768 5764 5759 5756 5754 5753 5752 5751 5750 5749 5748 5747 5745 5745 5744 5742 5741 5740 5739 5738 5736 5735 5735 5733 5731 5733 5735 5736 5736 5736 5736 5736 5735 5734 5733 5732 5731 5730
5790 5786 5782 5778 5775 5771 5768 5764 5761 5758 5756 5755 5753 5752 5751 5749 5748 5747 5746 5744 5743 5742 5740 5739 5738 5735 5734 5734 5731 5727 5724 5727 5731 5735 5734 5734 5734 5734 5733 5732 5731 5729 5729
5793 5790 5787 5782 5778 5775 5771 5766 5763 5759 5756 5754 5753 5752 5752 5750 5749 5748 5747 5746 5744 5743 5741 5740 5739 5736 5733 5733 5733 5729 5722 5720 5724 5728 5730 5731 5731 5731 5731 5730 5729 5728 5727
5799 5795 5791 5786 5781 5777 5773 5768 5763 5758 5755 5755 5755 5753 5753 5752 5751 5750 5748 5747 5745 5744 5742 5741 5741 5739 5736 5732 5732 5732 5730 5728 5722 5721 5725 5727 5728 5728 5728 5728 5727 5727 5726
5803 5798 5794 5789 5784 5780 5776 5771 5766 5762 5760 5758 5756 5754 5753 5752 5751 5750 5749 5747 5746 5744 5743 5742 5741 5739 5738 5735 5733 5731 5729 5727 5726 5721 5719 5722 5724 5725 5726 5726 5725 5725 5724
5805 5801 5796 5790 5786 5783 5778 5774 5770 5765 5762 5758 5755 5753 5753 5752 5751 5750 5749 5747 5746 5745 5743 5742 5741 5740 5738 5736 5735 5733 5730 5727 5724 5722 5719 5719 5719 5722 5723 5724 5723 5723 5722